Home > Weather > Olathe > Past weeks

Flag for USA Past Weather in Olathe, Kansas, USA — Yesterday and Last 2 Weeks

Now
70 °F

Thundershowers. Passing clouds.


Feels Like: 68 °F
Forecast: 67 / 85 °F
Wind: 7 mph from Southwest

Location: Johnson County Executive Airport

Current Time: Jun 30, 2016 at 7:24:29 AM

Latest Report: Jun 30, 2016 at 6:55 AM


Visibility: 10 mi

Pressure: 29.94 "Hg

Humidity: 87%

Dew Point: 66 °F

Location of OlatheLocation

Past Weather in Olathe — Graph

°F

Olathe Temperature Yesterday

Maximum temperature yesterday: 81 °F (at 1:53 PM)
Minimum temperature yesterday: 66 °F (at 3:53 AM)
Average temperature yesterday: 74 °F

High & Low Weather Summary for the Past Weeks

 TemperatureHumidityPressure
High97 °F (Jun 15, 2:53 PM)100% (Jun 27, 12:53 AM)30.20 "Hg (Jun 27, 12:53 AM)
Low66 °F (Jun 29, 3:53 AM)27% (Jun 15, 4:00 PM)29.74 "Hg (Jun 22, 6:53 PM)
Average80 °F66%29.99 "Hg
* Reported Jun 15 5:53 AM — Jun 30 5:53 AM, Olathe, Weather by CustomWeather, © 2016

Note: Actual official high and low records may vary slightly from our data, if they occured in-between our weather recording intervals... More about our weather records

Advertising

Olathe Weather History for the Previous 24 Hours

Scroll right to see more
 ConditionsComfort  
Time TempWeatherWind HumidityBarometerVisibility
5:53 AM
Thu, Jun 30
70 °FThundershowers. Partly cloudy.10 mph84%29.90 "Hg10 mi
5:01 AM69 °FThundershowers. Passing clouds.8 mph87%29.95 "Hg10 mi
4:53 AM69 °FPassing clouds.6 mph87%29.92 "Hg10 mi
3:53 AM69 °FClear.6 mph90%29.94 "Hg10 mi
2:53 AM70 °FClear.8 mph87%29.94 "Hg10 mi
2:00 AM71 °FThundershowers. Clear.6 mph84%29.99 "Hg10 mi
12:53 AM72 °FPassing clouds.6 mph81%29.97 "Hg10 mi
11:53 PM
Wed, Jun 29
73 °FClear.7 mph79%29.97 "Hg10 mi
10:53 PM73 °FClear.6 mph79%29.98 "Hg10 mi
9:53 PM75 °FClear.7 mph76%29.97 "Hg10 mi
8:53 PM76 °FPassing clouds.5 mph72%29.96 "Hg10 mi
7:53 PM78 °FSunny.8 mph62%29.96 "Hg10 mi
6:53 PM79 °FSunny.6 mph62%29.96 "Hg10 mi
5:53 PM79 °FSunny.6 mph67%29.99 "Hg10 mi
4:53 PM80 °FSunny.7 mph64%30.01 "Hg10 mi
3:53 PM79 °FSunny.7 mph60%30.03 "Hg10 mi
2:53 PM81 °FSunny.8 mph56%30.03 "Hg10 mi
1:53 PM81 °FPassing clouds.9 mph56%30.04 "Hg10 mi
12:53 PM80 °FPartly sunny.7 mph58%30.07 "Hg10 mi
11:53 AM79 °FPassing clouds.13 mph62%30.06 "Hg10 mi
10:53 AM78 °FSunny.12 mph66%30.07 "Hg10 mi
9:53 AM75 °FSunny.7 mph71%30.08 "Hg10 mi
8:53 AM73 °FSunny.8 mph76%30.08 "Hg10 mi
7:53 AM69 °FSunny.6 mph87%30.07 "Hg10 mi
Weather by CustomWeather, © 2016

See weather overviewHow to use our weather pages